GW3142 Weather Reports


Display with metric or nautical units.
time (UTC)temp
F
wind
direction
speed
MPH
gust
MPH
rain 1hr
in
rain 24hr
in
rain mn
in
humidity
%
barometer
mb
20260901161717 54 224 5.0 10.0 0.00 0.00 0.00 82 1015.8
20260901161003 54 224 5.0 9.0 0.00 0.00 0.00 81 1015.8
20260901160713 54 224 6.0 9.0 0.00 0.00 0.00 82 1015.8
20260901160004 53 224 6.0 10.0 0.00 0.00 0.00 83 1016.0
20260901155503 53 224 5.0 10.0 0.00 0.00 0.00 83 1015.9
20260901155003 53 224 5.0 11.0 0.00 0.00 0.00 83 1015.8
20260901154503 53 224 5.0 11.0 0.00 0.00 0.00 82 1015.7
20260901154003 53 224 5.0 10.0 0.00 0.00 0.00 82 1015.7
20260901153503 53 224 5.0 10.0 0.00 0.00 0.00 83 1015.6
20260901153003 53 224 4.0 9.0 0.00 0.00 0.00 72 1015.6
20260901152717 53 224 4.0 7.0 0.00 0.00 0.00 73 1015.5
20260901152003 52 224 6.0 10.0 0.00 0.00 0.00 73 1015.5
20260901151503 52 224 5.0 11.0 0.00 0.00 0.00 72 1015.4
20260901151003 52 224 5.0 11.0 0.00 0.00 0.00 84 1015.3
20260901150714 52 224 5.0 10.0 0.00 0.00 0.00 84 1015.3
20260901150003 52 224 5.0 10.0 0.00 0.00 0.00 84 1015.4
20260901145714 52 224 4.0 9.0 0.00 0.00 0.00 73 1015.4
20260901145003 52 224 4.0 9.0 0.00 0.00 0.00 74 1015.3
20260901144715 52 224 4.0 9.0 0.00 0.00 0.00 74 1015.3
20260901144003 52 224 5.0 8.0 0.00 0.00 0.00 74 1015.2
20260901143503 52 224 5.0 8.0 0.00 0.00 0.00 74 1015.1
20260901143003 52 224 4.0 7.0 0.00 0.00 0.00 74 1015.0
20260901142503 52 224 4.0 8.0 0.00 0.00 0.00 74 1014.9
20260901142003 52 224 5.0 9.0 0.00 0.00 0.00 74 1014.8
20260901141503 52 224 4.0 9.0 0.00 0.00 0.00 74 1014.8
20260901141216 52 224 4.0 7.0 0.00 0.00 0.00 74 1014.7
20260901140714 52 224 4.0 8.0 0.00 0.00 0.00 74 1014.7
20260901140004 52 224 4.0 9.0 0.00 0.00 0.00 74 1014.6
20260901135503 52 224 5.0 9.0 0.00 0.00 0.00 74 1014.5
20260901135003 52 224 6.0 11.0 0.00 0.00 0.00 74 1014.4
20260901134503 52 224 6.0 11.0 0.00 0.00 0.00 74 1014.4
20260901134003 52 224 5.0 8.0 0.00 0.00 0.00 74 1014.5
20260901133717 52 224 5.0 8.0 0.00 0.00 0.00 75 1014.4
20260901133003 52 224 4.0 8.0 0.00 0.00 0.00 75 1014.4
20260901132503 52 224 5.0 9.0 0.00 0.00 0.00 75 1014.3
20260901132003 52 224 5.0 9.0 0.00 0.00 0.00 88 1014.4
20260901131503 52 224 4.0 10.0 0.00 0.00 0.00 87 1014.3
20260901131003 52 224 4.0 10.0 0.00 0.00 0.00 75 1014.4
20260901130503 52 224 4.0 8.0 0.00 0.00 0.00 75 1014.4
20260901130003 52 224 4.0 8.0 0.00 0.00 0.00 75 1014.4
20260901125503 52 224 3.0 5.0 0.00 0.00 0.00 75 1014.4
20260901125003 52 224 3.0 8.0 0.00 0.00 0.00 75 1014.4
20260901124504 52 224 3.0 8.0 0.00 0.00 0.00 75 1014.3
20260901124003 52 224 3.0 6.0 0.00 0.00 0.00 76 1014.2
20260901123713 52 224 3.0 7.0 0.00 0.00 0.00 75 1014.2
20260901123003 52 224 3.0 7.0 0.00 0.00 0.00 75 1014.2
20260901122714 52 224 3.0 7.0 0.00 0.00 0.00 75 1014.1
20260901122003 52 224 3.0 7.0 0.00 0.00 0.00 75 1014.1
20260901121503 52 224 4.0 6.0 0.00 0.00 0.00 75 1014.1
20260901121212 52 224 4.0 6.0 0.00 0.00 0.00 76 1014.1
20260901120503 52 224 4.0 7.0 0.00 0.00 0.00 75 1014.2
20260901120213 52 224 3.0 7.0 0.00 0.00 0.00 76 1014.2
20260901115503 52 224 3.0 9.0 0.00 0.00 0.00 76 1014.1
20260901115003 52 224 4.0 9.0 0.00 0.00 0.00 76 1014.1
20260901114503 51 224 3.0 7.0 0.00 0.00 0.00 76 1014.3
20260901114003 51 224 3.0 7.0 0.00 0.00 0.00 76 1014.1
20260901113503 51 224 4.0 10.0 0.00 0.00 0.00 76 1014.3
20260901113003 51 224 4.0 10.0 0.00 0.00 0.00 76 1014.3
20260901112503 51 224 4.0 8.0 0.00 0.00 0.00 76 1014.3
20260901112003 51 224 4.0 9.0 0.00 0.00 0.00 76 1014.3
20260901111503 51 224 5.0 9.0 0.00 0.00 0.00 76 1014.3
20260901111003 51 224 5.0 12.0 0.00 0.00 0.00 76 1014.3
20260901110503 51 225 5.0 12.0 0.00 0.00 0.00 76 1014.3
20260901110003 51 225 5.0 9.0 0.00 0.00 0.00 76 1014.3
20260901105503 51 225 6.0 11.0 0.00 0.00 0.00 77 1014.3
20260901105003 51 225 6.0 11.0 0.00 0.00 0.00 77 1014.3
20260901104713 51 226 6.0 10.0 0.00 0.00 0.00 77 1014.3
20260901104003 52 226 5.0 9.0 0.00 0.00 0.00 77 1014.1
20260901103503 52 226 4.0 8.0 0.00 0.00 0.00 77 1014.1
20260901103003 52 226 3.0 7.0 0.00 0.00 0.00 77 1014.0
20260901102503 52 226 3.0 8.0 0.00 0.00 0.00 77 1014.0
20260901102003 52 226 4.0 9.0 0.00 0.00 0.00 77 1014.1
20260901101503 52 226 5.0 9.0 0.00 0.00 0.00 77 1014.0
20260901101003 52 226 5.0 9.0 0.00 0.00 0.00 77 1014.0
20260901100503 51 226 5.0 10.0 0.00 0.00 0.00 76 1014.0
20260901100003 51 226 5.0 11.0 0.00 0.00 0.00 77 1013.9
20260901095503 51 226 5.0 11.0 0.00 0.00 0.00 77 1013.9
20260901095003 51 226 5.0 11.0 0.00 0.00 0.00 77 1013.9
20260901094503 51 226 5.0 11.0 0.00 0.00 0.00 77 1013.8
20260901094003 51 226 6.0 12.0 0.00 0.00 0.00 77 1013.9
20260901093503 51 226 6.0 12.0 0.00 0.00 0.00 77 1013.8
20260901093003 51 226 6.0 13.0 0.00 0.00 0.00 77 1013.8
20260901092503 52 225 6.0 13.0 0.00 0.00 0.00 77 1013.8
20260901092003 52 225 5.0 8.0 0.00 0.00 0.00 77 1013.8
20260901091503 52 225 4.0 7.0 0.00 0.00 0.00 77 1013.8
20260901091003 52 225 4.0 9.0 0.00 0.00 0.00 77 1013.7
20260901090503 52 225 6.0 12.0 0.00 0.00 0.00 77 1013.7
20260901090215 52 225 6.0 12.0 0.00 0.00 0.00 77 1013.8
20260901085503 52 224 5.0 11.0 0.00 0.00 0.00 77 1013.8
20260901085003 52 224 4.0 8.0 0.00 0.00 0.00 77 1013.7
20260901084503 52 224 4.0 8.0 0.00 0.00 0.00 77 1013.7
20260901084003 52 224 3.0 6.0 0.00 0.00 0.00 77 1013.7
20260901083715 52 224 3.0 5.0 0.00 0.00 0.00 77 1013.8
20260901083003 52 224 3.0 6.0 0.00 0.00 0.00 77 1013.6
20260901082503 52 224 4.0 8.0 0.00 0.00 0.00 77 1013.6
20260901082003 52 224 5.0 8.0 0.00 0.00 0.00 77 1013.7
20260901081503 52 224 5.0 8.0 0.00 0.00 0.00 77 1013.6
20260901081003 52 224 5.0 9.0 0.00 0.00 0.00 77 1013.7
20260901080503 52 224 5.0 9.0 0.00 0.00 0.00 77 1013.7
20260901080003 52 224 5.0 8.0 0.00 0.00 0.00 77 1013.8
20260901075503 52 224 5.0 8.0 0.00 0.00 0.00 77 1013.7
20260901075003 52 224 5.0 8.0 0.00 0.00 0.00 77 1013.6
20260901074503 52 224 4.0 7.0 0.00 0.00 0.00 77 1013.7
20260901074003 52 224 3.0 6.0 0.00 0.00 0.00 77 1013.7
20260901073503 52 224 4.0 6.0 0.00 0.00 0.00 77 1013.8
20260901073214 52 224 4.0 9.0 0.00 0.00 0.00 77 1013.8
20260901072503 52 224 4.0 9.0 0.00 0.00 0.00 77 1013.9
20260901072003 52 224 4.0 8.0 0.00 0.00 0.00 77 1013.9
20260901071503 51 224 5.0 8.0 0.00 0.00 0.00 77 1013.9
20260901071003 51 224 4.0 8.0 0.00 0.00 0.00 77 1013.9
20260901070713 51 224 5.0 11.0 0.00 0.00 0.00 77 1013.9
20260901070222 52 224 6.0 11.0 0.00 0.00 0.00 77 1013.8
20260901065503 52 224 4.0 9.0 0.00 0.00 0.00 77 1013.8
20260901065003 52 224 3.0 9.0 0.00 0.00 0.00 77 1013.8
20260901064503 52 224 4.0 9.0 0.00 0.00 0.00 77 1013.8
20260901064003 52 224 4.0 9.0 0.00 0.00 0.00 77 1014.0
20260901063503 52 224 3.0 6.0 0.00 0.00 0.00 77 1014.0
20260901063003 51 224 3.0 6.0 0.00 0.00 0.00 77 1014.0
20260901062503 51 224 4.0 8.0 0.00 0.00 0.00 77 1014.0
20260901062215 51 224 4.0 8.0 0.00 0.00 0.00 77 1014.0
20260901061503 51 224 4.0 8.0 0.00 0.00 0.00 77 1013.9
20260901061216 51 224 5.0 8.0 0.00 0.00 0.00 77 1013.9
20260901060503 51 224 5.0 11.0 0.00 0.00 0.00 77 1013.9
20260901060217 51 224 6.0 11.0 0.00 0.00 0.00 78 1014.0
20260901055503 51 224 5.0 9.0 0.00 0.00 0.00 78 1014.1
20260901055003 51 224 6.0 12.0 0.00 0.00 0.00 78 1014.1
20260901054503 51 224 6.0 12.0 0.00 0.00 0.00 78 1014.1
20260901054003 51 225 6.0 10.0 0.00 0.00 0.00 78 1014.1
20260901053503 51 225 5.0 8.0 0.00 0.00 0.00 78 1014.1
20260901053003 51 225 6.0 11.0 0.00 0.00 0.00 78 1014.1
20260901052713 51 225 6.0 11.0 0.00 0.00 0.00 78 1014.1
20260901052004 51 225 6.0 10.0 0.00 0.00 0.00 78 1014.0
20260901051503 51 225 5.0 11.0 0.00 0.00 0.00 78 1014.0
20260901051003 51 226 6.0 11.0 0.00 0.00 0.00 78 1013.9
20260901050715 51 226 6.0 11.0 0.00 0.00 0.00 78 1013.8
20260901050003 51 224 7.0 14.0 0.00 0.00 0.00 78 1013.7
20260901045503 51 222 8.0 14.0 0.00 0.00 0.00 77 1013.7
20260901045003 51 220 8.0 13.0 0.00 0.00 0.00 77 1013.6
20260901044505 52 217 7.0 13.0 0.00 0.00 0.00 78 1013.6
20260901044003 52 216 6.0 11.0 0.00 0.00 0.00 78 1013.6
20260901043503 52 216 5.0 8.0 0.00 0.00 0.00 78 1013.6
20260901043003 52 216 5.0 8.0 0.00 0.00 0.00 78 1013.5
20260901042503 52 216 5.0 8.0 0.00 0.00 0.00 78 1013.5
20260901042003 52 216 5.0 8.0 0.00 0.00 0.00 78 1013.4
20260901041503 52 216 4.0 9.0 0.00 0.00 0.00 78 1013.4
20260901041212 52 216 5.0 9.0 0.00 0.00 0.00 78 1013.4
20260901040503 52 216 5.0 8.0 0.00 0.00 0.00 78 1013.4
20260901040003 52 216 5.0 11.0 0.00 0.00 0.00 78 1013.3
20260901035716 52 216 6.0 12.0 0.00 0.00 0.00 78 1013.4
20260901035003 52 216 6.0 12.0 0.00 0.00 0.00 78 1013.2
20260901034503 52 216 7.0 12.0 0.00 0.00 0.00 78 1013.3
20260901034003 52 216 6.0 12.0 0.00 0.00 0.00 78 1013.2
20260901033713 52 216 6.0 12.0 0.00 0.00 0.00 78 1013.1
20260901033003 52 216 5.0 9.0 0.00 0.00 0.00 78 1013.1
20260901032503 52 216 5.0 9.0 0.00 0.00 0.00 93 1013.0
20260901032003 52 216 6.0 9.0 0.00 0.00 0.00 93 1012.9
20260901031715 52 216 6.0 11.0 0.00 0.00 0.00 78 1012.9
20260901031003 52 216 6.0 11.0 0.00 0.00 0.00 78 1012.9
20260901030716 52 216 6.0 10.0 0.00 0.00 0.00 77 1012.9
20260901030004 52 216 6.0 11.0 0.00 0.00 0.00 77 1012.9
20260901025717 52 216 6.0 11.0 0.00 0.00 0.00 77 1012.8
20260901025003 52 216 6.0 12.0 0.00 0.00 0.00 77 1012.8
20260901024503 52 216 7.0 13.0 0.00 0.00 0.00 77 1012.8
20260901024003 52 216 6.0 13.0 0.00 0.00 0.00 77 1012.7
20260901023503 53 216 6.0 12.0 0.00 0.00 0.00 77 1012.8
20260901023003 53 216 6.0 12.0 0.00 0.00 0.00 77 1012.8
20260901022503 53 216 6.0 10.0 0.00 0.00 0.00 77 1012.8
20260901022003 53 216 6.0 12.0 0.00 0.00 0.00 77 1012.8
20260901021503 53 216 6.0 12.0 0.00 0.00 0.00 77 1012.7
20260901021213 53 216 6.0 13.0 0.00 0.00 0.00 77 1012.7
20260901020503 53 216 7.0 13.0 0.00 0.00 0.00 77 1012.6
20260901020003 53 216 7.0 14.0 0.00 0.00 0.00 77 1012.6
20260901015503 53 217 7.0 14.0 0.00 0.00 0.00 76 1012.5
20260901015003 54 217 6.0 13.0 0.00 0.00 0.00 76 1012.6
20260901014503 54 217 6.0 13.0 0.00 0.00 0.00 76 1012.7
20260901014217 54 217 6.0 13.0 0.00 0.00 0.00 76 1012.7
20260901013503 54 218 6.0 11.0 0.00 0.00 0.00 76 1012.7
20260901013212 54 218 6.0 11.0 0.00 0.00 0.00 76 1012.7
20260901012503 54 218 6.0 11.0 0.00 0.00 0.00 75 1012.6
20260901012003 54 218 6.0 11.0 0.00 0.00 0.00 75 1012.7
20260901011503 55 218 7.0 11.0 0.00 0.00 0.00 75 1012.8
20260901011214 55 218 7.0 11.0 0.00 0.00 0.00 75 1012.8
20260901010503 55 218 7.0 13.0 0.00 0.00 0.00 75 1012.8
20260901010003 55 218 7.0 13.0 0.00 0.00 0.00 75 1012.8
20260901005713 55 218 7.0 12.0 0.00 0.00 0.00 75 1012.7
20260901005003 55 218 7.0 13.0 0.00 0.00 0.00 74 1012.8
20260901004503 55 218 8.0 13.0 0.00 0.00 0.00 86 1012.8
20260901004003 56 218 8.0 15.0 0.00 0.00 0.00 74 1012.7
20260901003503 56 217 9.0 15.0 0.00 0.00 0.00 84 1012.7
20260901003003 57 216 8.0 13.0 0.00 0.00 0.00 83 1012.6
20260901002503 58 216 7.0 12.0 0.00 0.00 0.00 72 1012.6
20260901002003 59 216 8.0 13.0 0.00 0.00 0.00 80 1012.6
20260901001503 59 217 8.0 13.0 0.00 0.00 0.00 71 1012.6
20260901001003 60 217 8.0 15.0 0.00 0.00 0.00 71 1012.5
20260901000503 60 218 8.0 15.0 0.00 0.00 0.00 71 1012.6
20260901000003 60 218 8.0 16.0 0.00 0.00 0.00 70 1012.6
20260831235504 61 219 7.0 16.0 0.00 0.00 0.00 70 1012.6
20260831235003 61 219 7.0 12.0 0.00 0.00 0.00 70 1012.7
20260831234503 61 219 8.0 12.0 0.00 0.00 0.00 70 1012.6
20260831234003 61 219 8.0 14.0 0.00 0.00 0.00 70 1012.6
20260831233716 61 220 8.0 14.0 0.00 0.00 0.00 70 1012.7
20260831233003 62 218 8.0 14.0 0.00 0.00 0.00 70 1012.7
20260831232503 61 218 8.0 14.0 0.00 0.00 0.00 70 1012.8
20260831232003 62 221 8.0 16.0 0.00 0.00 0.00 70 1012.8
20260831231503 62 226 8.0 16.0 0.00 0.00 0.00 70 1012.9
20260831231003 62 228 8.0 14.0 0.00 0.00 0.00 69 1012.8
20260831230503 63 228 8.0 13.0 0.00 0.00 0.00 69 1012.8
20260831230004 63 228 8.0 13.0 0.00 0.00 0.00 69 1012.8
20260831225503 63 229 8.0 13.0 0.00 0.00 0.00 70 1012.9
20260831225003 63 230 8.0 15.0 0.00 0.00 0.00 70 1013.0
20260831224503 63 231 9.0 15.0 0.00 0.00 0.00 69 1013.0
20260831224003 63 231 8.0 14.0 0.00 0.00 0.00 69 1013.0
20260831223503 63 231 8.0 14.0 0.00 0.00 0.00 75 1013.1
20260831223214 63 231 7.0 13.0 0.00 0.00 0.00 76 1013.0
20260831222503 62 231 7.0 13.0 0.00 0.00 0.00 76 1013.0
20260831222215 62 231 8.0 13.0 0.00 0.00 0.00 76 1013.0
20260831221713 62 232 7.0 13.0 0.00 0.00 0.00 76 1013.2
20260831221003 62 234 7.0 14.0 0.00 0.00 0.00 70 1013.1
20260831220503 62 236 8.0 15.0 0.00 0.00 0.00 70 1013.2
20260831220003 62 238 8.0 15.0 0.00 0.00 0.00 78 1013.2
20260831215503 62 239 7.0 11.0 0.00 0.00 0.00 71 1013.3
20260831215003 62 239 7.0 11.0 0.00 0.00 0.00 71 1013.4
20260831214503 62 239 7.0 11.0 0.00 0.00 0.00 71 1013.3
20260831214003 61 239 7.0 11.0 0.00 0.00 0.00 72 1013.4
20260831213503 61 239 7.0 11.0 0.00 0.00 0.00 71 1013.4
20260831213003 61 239 7.0 12.0 0.00 0.00 0.00 72 1013.5
20260831212503 61 239 7.0 12.0 0.00 0.00 0.00 72 1013.5
20260831212216 62 239 7.0 12.0 0.00 0.00 0.00 72 1013.6
20260831211714 61 239 7.0 12.0 0.00 0.00 0.00 72 1013.7
20260831211003 61 239 7.0 12.0 0.00 0.00 0.00 72 1013.7
20260831210503 61 239 7.0 12.0 0.00 0.00 0.00 73 1013.8
20260831210213 60 239 7.0 11.0 0.00 0.00 0.00 74 1013.8
20260831205503 59 239 7.0 14.0 0.00 0.00 0.00 75 1013.8
20260831205003 58 239 7.0 14.0 0.00 0.00 0.00 75 1013.8
20260831204503 58 239 7.0 12.0 0.00 0.00 0.00 75 1013.8
20260831204003 58 239 7.0 12.0 0.00 0.00 0.00 76 1013.8
20260831203503 57 240 7.0 12.0 0.00 0.00 0.00 76 1013.8
20260831203003 57 240 7.0 13.0 0.00 0.00 0.00 76 1013.9
20260831202503 58 241 6.0 13.0 0.00 0.00 0.00 76 1013.8
20260831202003 58 242 7.0 11.0 0.00 0.00 0.00 77 1013.8
20260831201503 57 242 7.0 11.0 0.00 0.00 0.00 76 1013.9
20260831201003 58 242 7.0 13.0 0.00 0.00 0.00 76 1014.0
20260831200503 58 242 7.0 13.0 0.00 0.00 0.00 77 1013.9
20260831200003 57 242 6.0 10.0 0.00 0.00 0.00 77 1013.8
20260831195716 57 242 6.0 10.0 0.00 0.00 0.00 78 1013.7
20260831195003 56 242 5.0 10.0 0.00 0.00 0.00 78 1013.8
20260831194503 55 242 5.0 10.0 0.00 0.00 0.00 79 1013.9
20260831194003 55 242 6.0 10.0 0.00 0.00 0.00 79 1013.9
20260831193503 55 242 6.0 10.0 0.00 0.00 0.00 79 1014.0
20260831193003 54 242 5.0 9.0 0.00 0.00 0.00 79 1014.0
20260831192714 54 242 5.0 8.0 0.00 0.00 0.00 79 1014.2
20260831192003 54 242 5.0 9.0 0.00 0.00 0.00 80 1014.2
20260831191503 54 242 5.0 9.0 0.00 0.00 0.00 79 1014.2
20260831191003 54 242 4.0 9.0 0.00 0.00 0.00 79 1014.1
20260831190503 53 242 3.0 7.0 0.00 0.00 0.00 79 1014.2
20260831190214 53 242 4.0 7.0 0.00 0.00 0.00 79 1014.1
20260831185503 53 242 3.0 6.0 0.00 0.00 0.00 79 1013.9
20260831185003 53 242 3.0 6.0 0.00 0.00 0.00 79 1013.9
20260831184713 53 242 4.0 6.0 0.00 0.00 0.00 79 1013.9
20260831184003 53 242 3.0 6.0 0.00 0.00 0.00 79 1013.9
20260831183503 53 242 3.0 7.0 0.00 0.00 0.00 80 1013.9
20260831183003 53 242 5.0 8.0 0.00 0.00 0.00 80 1013.9
20260831182503 53 242 5.0 10.0 0.00 0.00 0.00 79 1013.9
20260831182213 53 242 5.0 10.0 0.00 0.00 0.00 79 1013.9
20260831181716 53 242 5.0 9.0 0.00 0.00 0.00 79 1013.9
20260831181003 53 242 6.0 10.0 0.00 0.00 0.00 79 1013.8
20260831180503 53 242 6.0 10.0 0.00 0.00 0.00 79 1013.8
20260831180003 53 242 5.0 9.0 0.00 0.00 0.00 79 1013.7
20260831175503 53 242 6.0 11.0 0.00 0.00 0.00 79 1013.8
20260831175003 52 242 6.0 11.0 0.00 0.00 0.00 79 1013.8
20260831174503 52 242 6.0 10.0 0.00 0.00 0.00 79 1013.8
20260831174003 52 242 6.0 10.0 0.00 0.00 0.00 79 1013.8
20260831173714 52 242 6.0 10.0 0.00 0.00 0.00 79 1013.7
20260831173003 52 242 6.0 10.0 0.00 0.00 0.00 79 1013.7
20260831172503 52 242 6.0 12.0 0.00 0.00 0.00 79 1013.7
20260831172213 52 242 6.0 12.0 0.00 0.00 0.00 79 1013.7
20260831171503 52 242 6.0 10.0 0.00 0.00 0.00 79 1013.6
20260831171003 52 242 6.0 13.0 0.00 0.00 0.00 79 1013.5
20260831170503 52 242 6.0 13.0 0.00 0.00 0.00 79 1013.4
20260831170003 51 242 6.0 11.0 0.00 0.00 0.00 79 1013.4
20260831165503 51 242 6.0 14.0 0.00 0.00 0.00 79 1013.4
20260831165003 51 243 7.0 14.0 0.00 0.00 0.00 79 1013.2
20260831164503 51 243 7.0 13.0 0.00 0.00 0.00 79 1013.1
20260831164003 51 244 6.0 13.0 0.00 0.00 0.00 79 1013.1
20260831163503 51 245 6.0 12.0 0.00 0.00 0.00 79 1013.1
20260831163003 51 245 6.0 10.0 0.00 0.00 0.00 79 1013.2
20260831162503 51 245 6.0 10.0 0.00 0.00 0.00 79 1013.1
20260831162003 51 245 6.0 10.0 0.00 0.00 0.00 79 1013.0